#timestamp,LO_Frequency,Hit,StdDev 
1540753215.1,286047003.5,N
1540753216.0,286047003.5,N
1540753235.8,286047003.8,N
1540753255.7,286047003.8,N
1540753275.5,286047001.7,N
1540753295.3,286047001.1,N
1540753315.2,286046995.2,N
1540753335.0,286046997.9,N
1540753335.9,286046997.9,N
1540753355.7,286046995.0,N
1540753405.6,286046990.7,E
1540753415.5,286046997.6,N
1540753435.4,286047003.0,P
1540753455.2,286047005.3,N
1540753475.0,286047005.0,N
1540753475.9,286047005.0,N
1540753495.8,286047005.3,N
1540753515.6,286047012.4,Y
1540753535.5,286047007.5,P
1540753555.3,286047004.6,N
1540753575.1,286047007.4,P
1540753595.9,286047006.2,Y
1540753615.7,286047001.8,P
1540753635.6,286047001.5,N
1540753655.4,286047001.4,N
1540753675.2,286047003.4,N
1540753695.1,286047003.3,N
1540753696.0,286047003.3,N
1540753715.8,286047002.9,N
1540753735.7,286047004.4,Y
1540753755.5,286046998.1,P
1540753775.3,286047000.3,N
1540753795.2,286047000.3,N
1540753815.0,286046999.7,N
1540753815.9,286046999.7,N
1540753835.8,286047000.0,N
1540753855.6,286046999.9,N
1540753875.4,286047001.4,N
1540753895.3,286047002.8,N
1540753915.1,286047000.6,N
1540753935.8,286046997.3,N
1540753955.7,286046995.0,Y
1540753975.5,286046997.4,P
1540753995.4,286046996.9,N
1540754015.2,286046996.5,N
1540754035.0,286046997.2,N
1540754035.9,286046997.2,N
1540754055.8,286046997.5,N
1540754075.6,286046997.7,N
1540754095.5,286046996.6,Y
1540754115.3,286046999.9,P
1540754135.1,286047002.2,N
1540754155.9,286047002.6,N
1540754175.7,286047001.5,N
1540754195.5,286046999.8,N
1540754215.4,286047004.0,N
1540754235.2,286047004.3,N
1540754255.1,286047003.0,N
1540754256.0,286047003.0,N
1540754275.8,286047004.1,N
1540754295.6,286047003.2,N
1540754315.5,286047003.6,N
1540754335.3,286047001.7,N
1540754355.1,286047001.9,N
1540754375.9,286047001.4,N
1540754395.7,286047004.2,N
1540754415.6,286047002.5,N
1540754435.4,286047001.8,N
1540754455.2,286047004.3,N
1540754475.1,286047003.6,N
1540754476.0,286047003.6,N
1540754495.8,286047003.8,N
1540754515.7,286047006.0,Y
1540754535.5,286047002.8,P
1540754555.3,286047000.3,N
1540754575.2,286046998.1,N
1540754595.0,286046998.8,N
1540754595.9,286046998.8,N
1540754615.8,286046999.0,N
1540754635.6,286046999.3,N
1540754655.4,286047000.9,N
1540754675.3,286046998.5,N
1540754695.1,286046998.4,N
1540754715.8,286046998.8,N
1540754735.7,286047000.3,N
1540754755.5,286047000.4,N
1540754775.4,286046999.8,N
1540754795.2,286047002.4,N
1540754815.0,286047000.2,N
1540754815.9,286047000.2,N
1540754835.8,286046998.6,N
1540754855.6,286047000.2,N
1540754875.4,286047002.8,N
1540754895.3,286047000.4,N
1540754915.1,286047002.7,N
1540754935.9,286047002.1,N
1540754955.7,286047002.6,N
1540754975.5,286046998.3,N
1540754995.4,286047002.0,N
1540755015.2,286047004.4,N
1540755035.0,286047002.5,N
1540755035.9,286047002.5,N
1540755055.8,286047002.7,N
1540755075.6,286047000.5,N
1540755095.5,286046999.4,N
1540755115.3,286046997.0,N
1540755135.1,286046997.4,N
1540755155.9,286046997.2,N
1540755175.7,286046997.3,N
1540755195.6,286046999.4,N
1540755215.4,286046999.5,N
1540755235.2,286046999.0,N
1540755255.1,286047000.2,N
1540755256.0,286047000.2,N
1540755275.8,286047000.6,N
1540755295.6,286047002.7,N
1540755315.5,286046998.6,N
1540755335.3,286046996.8,N
1540755355.2,286046996.5,N
1540755375.9,286046996.9,N
1540755395.7,286046998.7,N
1540755415.6,286047000.1,N
1540755435.4,286046999.8,N
1540755455.2,286046999.4,N
1540755475.1,286046998.2,N
1540755476.0,286046998.2,N
1540755495.8,286047001.2,N
1540755515.7,286047000.8,N
1540755535.5,286047000.6,N
1540755555.3,286047000.5,N
1540755575.2,286047002.2,N
1540755595.0,286047002.1,N
1540755595.9,286047002.1,N
1540755615.8,286047002.8,N
1540755635.6,286047001.3,N
1540755655.4,286047004.3,N
1540755675.3,286047002.0,N
1540755695.1,286047004.0,N
1540755715.9,286047001.9,N
1540755735.7,286047001.9,N
1540755755.5,286047002.7,N
1540755775.4,286047000.9,N
1540755795.2,286047000.4,N
1540755815.0,286046999.8,N
1540755815.9,286046999.8,N
1540755835.8,286047003.3,N
1540755855.6,286047005.6,N
1540755875.5,286047003.5,N
1540755895.3,286047005.4,N
1540755915.1,286047005.9,N
1540755935.9,286047005.8,N
1540755955.7,286047005.2,N
1540755975.5,286047005.4,N
1540755995.4,286047005.9,N
1540756015.2,286047004.3,N
1540756035.1,286047003.3,N
1540756036.0,286047003.3,N
1540756055.8,286047007.5,Y
1540756075.6,286047002.6,P
1540756095.5,286047001.7,P
1540756115.3,286047001.6,P
1540756135.2,286046999.8,N
1540756155.9,286047000.4,N
1540756175.7,286047000.9,N
1540756195.6,286047000.6,N
1540756215.4,286047000.6,N
1540756235.2,286047002.8,N
1540756255.1,286047002.8,N
1540756256.0,286047002.8,N
1540756275.8,286047002.9,N
1540756295.7,286047003.4,Y
1540756315.5,286047001.8,P
1540756335.3,286047002.6,P
1540756355.2,286047001.0,N
1540756375.0,286046998.3,Y
1540756375.9,286046998.3,P
1540756395.8,286046995.7,N
1540756415.6,286046995.3,N
1540756435.4,286046997.5,N
1540756455.3,286046997.4,N
1540756475.1,286046996.9,N
1540756495.8,286046997.8,N
1540756515.7,286047000.3,N
1540756535.5,286046999.8,N
1540756555.4,286047002.4,N
1540756575.2,286047002.2,N
1540756595.0,286047002.3,N
1540756595.9,286047002.3,N
1540756615.8,286047000.3,N
1540756635.6,286047001.9,N
1540756655.4,286046999.7,N
1540756675.3,286047000.7,N
1540756695.1,286046998.7,N
1540756715.9,286046998.5,N
1540756735.7,286046999.1,N
1540756755.5,286046995.2,N
1540756775.4,286046995.4,N
1540756825.2,286046994.6,E
